| time (UTC) | temp F | wind direction | speed MPH | gust MPH | rain 1hr in | rain 24hr in | rain mn in | humidity % | barometer mb |
| 20260504174543 | 62 | 359 | 7.0 | 11.0 | 0.00 | 0.01 | 0.00 | 92 | 1017.4 |
| 20260504174041 | 62 | 359 | 6.0 | 10.0 | 0.00 | 0.01 | 0.00 | 93 | 1017.5 |
| 20260504173542 | 61 | 359 | 7.0 | 10.0 | 0.00 | 0.01 | 0.00 | 93 | 1017.7 |
| 20260504173048 | 61 | 359 | 6.0 | 10.0 | 0.00 | 0.01 | 0.00 | 93 | 1017.6 |
| 20260504172539 | 61 | 359 | 7.0 | 10.0 | 0.00 | 0.01 | 0.00 | 93 | 1017.7 |
| 20260504172038 | 61 | 359 | 6.0 | 11.0 | 0.00 | 0.01 | 0.00 | 93 | 1017.9 |
| 20260504171538 | 61 | 359 | 7.0 | 11.0 | 0.00 | 0.01 | 0.00 | 93 | 1018.0 |
| 20260504171037 | 61 | 359 | 6.0 | 13.0 | 0.00 | 0.01 | 0.00 | 93 | 1018.3 |
| 20260504170536 | 61 | 359 | 9.0 | 13.0 | 0.00 | 0.01 | 0.00 | 93 | 1018.3 |
| 20260504151015 | 56 | 359 | 9.0 | 15.0 | 0.00 | 0.01 | 0.00 | 99 | 1019.9 |
| 20260504150514 | 56 | 359 | 8.0 | 17.0 | 0.00 | 0.01 | 0.00 | 99 | 1020.0 |
| 20260504141011 | 56 | 359 | 13.0 | 21.0 | 0.00 | 0.01 | 0.00 | 99 | 1020.5 |
| 20260504140509 | 55 | 359 | 15.0 | 21.0 | 0.00 | 0.01 | 0.00 | 99 | 1020.5 |
| 20260504130503 | 55 | 359 | 10.0 | 16.0 | 0.00 | 0.01 | 0.00 | 99 | 1020.7 |
| 20260504110547 | 53 | 359 | 11.0 | 16.0 | 0.00 | 0.02 | 0.00 | 99 | 1019.7 |
| 20260504100537 | 52 | 359 | 11.0 | 16.0 | 0.00 | 0.02 | 0.00 | 99 | 1019.6 |
| 20260504081528 | 51 | 359 | 7.0 | 12.0 | 0.00 | 0.02 | 0.02 | 99 | 1018.2 |
| 20260504081028 | 51 | 359 | 7.0 | 10.0 | 0.00 | 0.02 | 0.02 | 99 | 1018.1 |
| 20260504080528 | 51 | 354 | 7.0 | 10.0 | 0.00 | 0.02 | 0.02 | 99 | 1017.9 |
| 20260504050526 | 52 | 31 | 3.0 | 6.0 | 0.00 | 0.02 | 0.02 | 99 | 1019.7 |
| 20260504050024 | 52 | 35 | 2.0 | 8.0 | 0.00 | 0.02 | 0.02 | 99 | 1019.7 |
| 20260504045023 | 52 | 43 | 4.0 | 8.0 | 0.00 | 0.02 | 0.02 | 99 | 1019.8 |
| 20260504044536 | 52 | 45 | 6.0 | 9.0 | 0.00 | 0.02 | 0.02 | 99 | 1019.6 |
| 20260504044024 | 52 | 27 | 5.0 | 9.0 | 0.00 | 0.02 | 0.02 | 99 | 1019.6 |
| 20260504043523 | 52 | 14 | 5.0 | 11.0 | 0.00 | 0.02 | 0.02 | 99 | 1019.7 |
| 20260504043023 | 52 | 43 | 5.0 | 11.0 | 0.00 | 0.02 | 0.02 | 99 | 1019.8 |
| 20260504042523 | 52 | 70 | 6.0 | 10.0 | 0.00 | 0.02 | 0.02 | 99 | 1019.8 |
| 20260504042022 | 51 | 4 | 4.0 | 10.0 | 0.00 | 0.02 | 0.02 | 99 | 1019.7 |
| 20260504041522 | 51 | 36 | 4.0 | 10.0 | 0.00 | 0.02 | 0.02 | 99 | 1019.7 |
| 20260504041022 | 51 | 17 | 2.0 | 7.0 | 0.00 | 0.02 | 0.02 | 99 | 1019.7 |
| 20260504040526 | 51 | 101 | 2.0 | 6.0 | 0.00 | 0.02 | 0.02 | 99 | 1019.6 |
| 20260504040023 | 51 | 83 | 2.0 | 6.0 | 0.00 | 0.02 | 0.02 | 99 | 1019.8 |
| 20260504035021 | 51 | 359 | 2.0 | 9.0 | 0.00 | 0.02 | 0.02 | 99 | 1020.1 |
| 20260504034532 | 51 | 42 | 4.0 | 9.0 | 0.00 | 0.02 | 0.02 | 99 | 1020.3 |
| 20260504034021 | 51 | 63 | 4.0 | 9.0 | 0.00 | 0.02 | 0.02 | 99 | 1020.3 |
| 20260504033521 | 51 | 44 | 6.0 | 9.0 | 0.00 | 0.02 | 0.02 | 99 | 1020.5 |
| 20260504033029 | 51 | 49 | 4.0 | 8.0 | 0.00 | 0.02 | 0.02 | 99 | 1020.6 |
| 20260504032521 | 51 | 66 | 2.0 | 5.0 | 0.00 | 0.02 | 0.02 | 99 | 1020.6 |
| 20260504032024 | 51 | 4 | 1.0 | 5.0 | 0.00 | 0.02 | 0.02 | 99 | 1020.7 |
| 20260504031522 | 51 | 125 | 1.0 | 6.0 | 0.00 | 0.02 | 0.02 | 99 | 1020.8 |
| 20260504031019 | 51 | 83 | 3.0 | 6.0 | 0.01 | 0.02 | 0.02 | 99 | 1020.7 |
| 20260504030519 | 51 | 145 | 0.0 | 6.0 | 0.01 | 0.02 | 0.02 | 99 | 1020.9 |
| 20260504030020 | 51 | 143 | 2.0 | 6.0 | 0.01 | 0.02 | 0.02 | 99 | 1020.7 |
| 20260504025021 | 51 | 118 | 2.0 | 7.0 | 0.01 | 0.02 | 0.02 | 99 | 1020.8 |
| 20260504024523 | 51 | 21 | 1.0 | 7.0 | 0.01 | 0.02 | 0.02 | 99 | 1020.9 |
| 20260504024021 | 51 | 12 | 2.0 | 7.0 | 0.01 | 0.02 | 0.02 | 99 | 1020.8 |
| 20260504023523 | 50 | 114 | 1.0 | 6.0 | 0.01 | 0.02 | 0.02 | 99 | 1020.8 |
| 20260504023021 | 50 | 359 | 3.0 | 8.0 | 0.01 | 0.02 | 0.02 | 99 | 1020.6 |
| 20260504022521 | 50 | 249 | 2.0 | 10.0 | 0.01 | 0.02 | 0.02 | 99 | 1020.7 |
| 20260504022020 | 50 | 359 | 2.0 | 10.0 | 0.01 | 0.02 | 0.02 | 99 | 1020.7 |
| 20260504021530 | 50 | 249 | 2.0 | 8.0 | 0.01 | 0.02 | 0.02 | 99 | 1020.7 |
| 20260504021021 | 50 | 359 | 2.0 | 8.0 | 0.00 | 0.01 | 0.01 | 99 | 1020.7 |
| 20260504020522 | 50 | 359 | 2.0 | 6.0 | 0.00 | 0.01 | 0.01 | 99 | 1020.8 |
| 20260504020021 | 50 | 359 | 2.0 | 6.0 | 0.00 | 0.01 | 0.01 | 99 | 1020.8 |
| 20260504015025 | 50 | 171 | 3.0 | 7.0 | 0.00 | 0.01 | 0.01 | 99 | 1020.9 |
| 20260504014521 | 50 | 83 | 2.0 | 8.0 | 0.00 | 0.01 | 0.01 | 99 | 1020.8 |
| 20260504014021 | 50 | 23 | 2.0 | 8.0 | 0.00 | 0.01 | 0.01 | 99 | 1020.8 |
| 20260504013525 | 50 | 359 | 2.0 | 7.0 | 0.00 | 0.01 | 0.01 | 99 | 1020.8 |
| 20260504013032 | 50 | 102 | 3.0 | 7.0 | 0.00 | 0.01 | 0.01 | 99 | 1020.9 |
| 20260504012521 | 50 | 70 | 2.0 | 8.0 | 0.00 | 0.01 | 0.01 | 99 | 1021.0 |
| 20260504012022 | 50 | 99 | 3.0 | 8.0 | 0.00 | 0.01 | 0.01 | 99 | 1020.9 |
| 20260504011520 | 50 | 109 | 1.0 | 6.0 | 0.00 | 0.01 | 0.01 | 99 | 1020.9 |
| 20260504011020 | 50 | 255 | 3.0 | 9.0 | 0.00 | 0.01 | 0.01 | 99 | 1020.8 |
| 20260504010522 | 50 | 4 | 2.0 | 9.0 | 0.00 | 0.01 | 0.01 | 99 | 1020.9 |
| 20260504010021 | 50 | 213 | 2.0 | 9.0 | 0.00 | 0.01 | 0.01 | 99 | 1020.9 |
| 20260504005022 | 50 | 250 | 2.0 | 8.0 | 0.00 | 0.01 | 0.01 | 99 | 1021.0 |
| 20260504004522 | 50 | 191 | 1.0 | 5.0 | 0.00 | 0.01 | 0.01 | 99 | 1021.1 |
| 20260504004021 | 50 | 50 | 2.0 | 5.0 | 0.00 | 0.01 | 0.01 | 99 | 1021.0 |
| 20260504003521 | 49 | 359 | 1.0 | 6.0 | 0.00 | 0.01 | 0.01 | 99 | 1021.0 |
| 20260504003021 | 49 | 175 | 2.0 | 6.0 | 0.00 | 0.01 | 0.01 | 99 | 1021.0 |
| 20260504002521 | 49 | 80 | 3.0 | 7.0 | 0.00 | 0.01 | 0.01 | 99 | 1021.0 |
| 20260504002021 | 49 | 143 | 2.0 | 7.0 | 0.00 | 0.01 | 0.01 | 99 | 1021.0 |
| 20260504001520 | 49 | 185 | 1.0 | 6.0 | 0.00 | 0.01 | 0.01 | 99 | 1020.9 |
| 20260504001020 | 49 | 154 | 2.0 | 8.0 | 0.00 | 0.01 | 0.01 | 99 | 1020.8 |
| 20260504000523 | 49 | 359 | 2.0 | 8.0 | 0.00 | 0.01 | 0.01 | 99 | 1020.7 |
| 20260504000020 | 49 | 359 | 1.0 | 8.0 | 0.00 | 0.01 | 0.01 | 99 | 1020.7 |
| 20260503235014 | 49 | 133 | 2.0 | 8.0 | 0.00 | 0.01 | 0.01 | 99 | 1020.8 |
| 20260503234515 | 49 | 226 | 2.0 | 8.0 | 0.00 | 0.01 | 0.01 | 99 | 1020.6 |
| 20260503234018 | 49 | 170 | 3.0 | 10.0 | 0.00 | 0.01 | 0.01 | 98 | 1020.7 |
| 20260503233515 | 49 | 133 | 2.0 | 10.0 | 0.00 | 0.01 | 0.01 | 98 | 1020.7 |
| 20260503233014 | 49 | 359 | 2.0 | 10.0 | 0.00 | 0.01 | 0.01 | 98 | 1020.7 |
| 20260503232514 | 49 | 193 | 3.0 | 8.0 | 0.00 | 0.01 | 0.01 | 98 | 1020.6 |
| 20260503232018 | 49 | 210 | 3.0 | 8.0 | 0.00 | 0.01 | 0.01 | 98 | 1020.6 |
| 20260503231513 | 49 | 244 | 2.0 | 8.0 | 0.00 | 0.01 | 0.01 | 98 | 1020.6 |
| 20260503231014 | 49 | 112 | 3.0 | 8.0 | 0.00 | 0.01 | 0.01 | 98 | 1020.6 |
| 20260503230513 | 49 | 359 | 2.0 | 7.0 | 0.00 | 0.01 | 0.01 | 98 | 1020.6 |
| 20260503230013 | 49 | 359 | 3.0 | 7.0 | 0.00 | 0.01 | 0.01 | 98 | 1020.4 |
| 20260503225013 | 49 | 170 | 1.0 | 7.0 | 0.00 | 0.01 | 0.01 | 98 | 1020.3 |
| 20260503224513 | 49 | 359 | 2.0 | 6.0 | 0.00 | 0.01 | 0.01 | 98 | 1020.3 |
| 20260503224020 | 49 | 194 | 2.0 | 6.0 | 0.00 | 0.01 | 0.01 | 98 | 1020.0 |
| 20260503223513 | 49 | 260 | 2.0 | 6.0 | 0.00 | 0.01 | 0.01 | 98 | 1020.1 |
| 20260503223011 | 49 | 263 | 1.0 | 6.0 | 0.00 | 0.01 | 0.01 | 98 | 1020.1 |
| 20260503222512 | 49 | 156 | 1.0 | 7.0 | 0.00 | 0.01 | 0.01 | 98 | 1020.1 |
| 20260503222013 | 49 | 212 | 3.0 | 7.0 | 0.00 | 0.01 | 0.01 | 98 | 1020.1 |
| 20260503221513 | 49 | 359 | 2.0 | 7.0 | 0.00 | 0.01 | 0.01 | 98 | 1019.9 |
| 20260503221010 | 49 | 141 | 2.0 | 7.0 | 0.00 | 0.01 | 0.01 | 98 | 1019.9 |
| 20260503220510 | 49 | 229 | 1.0 | 9.0 | 0.00 | 0.01 | 0.01 | 98 | 1020.0 |
| 20260503220010 | 49 | 158 | 2.0 | 9.0 | 0.00 | 0.01 | 0.01 | 98 | 1019.9 |
| 20260503215011 | 49 | 83 | 3.0 | 9.0 | 0.00 | 0.01 | 0.01 | 98 | 1019.9 |
| 20260503214509 | 49 | 220 | 1.0 | 6.0 | 0.00 | 0.01 | 0.01 | 98 | 1019.8 |
| 20260503214015 | 49 | 359 | 2.0 | 7.0 | 0.00 | 0.01 | 0.01 | 98 | 1019.7 |
| 20260503213508 | 49 | 203 | 3.0 | 8.0 | 0.00 | 0.01 | 0.01 | 98 | 1019.6 |
| 20260503213022 | 49 | 166 | 3.0 | 7.0 | 0.00 | 0.02 | 0.01 | 98 | 1019.5 |
| 20260503212508 | 49 | 147 | 1.0 | 8.0 | 0.00 | 0.02 | 0.01 | 98 | 1019.6 |
| 20260503212007 | 49 | 220 | 2.0 | 6.0 | 0.00 | 0.02 | 0.01 | 98 | 1019.5 |
| 20260503211515 | 49 | 122 | 1.0 | 8.0 | 0.00 | 0.02 | 0.01 | 98 | 1019.6 |
| 20260503211009 | 49 | 168 | 3.0 | 6.0 | 0.00 | 0.02 | 0.01 | 98 | 1019.5 |
| 20260503210506 | 49 | 359 | 1.0 | 7.0 | 0.00 | 0.02 | 0.01 | 98 | 1019.7 |
| 20260503210006 | 49 | 185 | 2.0 | 7.0 | 0.00 | 0.02 | 0.01 | 98 | 1019.7 |
| 20260503205015 | 49 | 231 | 2.0 | 9.0 | 0.00 | 0.02 | 0.01 | 98 | 1019.6 |
| 20260503204507 | 49 | 108 | 2.0 | 9.0 | 0.00 | 0.02 | 0.01 | 98 | 1019.6 |
| 20260503204008 | 49 | 359 | 3.0 | 11.0 | 0.00 | 0.02 | 0.01 | 98 | 1019.6 |
| 20260503203507 | 49 | 190 | 3.0 | 11.0 | 0.00 | 0.02 | 0.01 | 98 | 1019.6 |
| 20260503203006 | 49 | 121 | 2.0 | 11.0 | 0.00 | 0.02 | 0.01 | 98 | 1019.5 |
| 20260503202509 | 49 | 161 | 2.0 | 7.0 | 0.00 | 0.02 | 0.01 | 98 | 1019.6 |
| 20260503202006 | 49 | 177 | 3.0 | 7.0 | 0.00 | 0.02 | 0.01 | 98 | 1019.5 |
| 20260503201518 | 49 | 359 | 2.0 | 6.0 | 0.00 | 0.02 | 0.01 | 98 | 1019.5 |
| 20260503201008 | 49 | 179 | 2.0 | 7.0 | 0.00 | 0.02 | 0.01 | 98 | 1019.5 |
| 20260503200506 | 49 | 192 | 2.0 | 8.0 | 0.00 | 0.02 | 0.01 | 98 | 1019.5 |
| 20260503200006 | 49 | 359 | 3.0 | 8.0 | 0.00 | 0.02 | 0.01 | 98 | 1019.5 |
| 20260503195005 | 50 | 212 | 2.0 | 6.0 | 0.00 | 0.02 | 0.01 | 98 | 1019.7 |
| 20260503194505 | 50 | 95 | 3.0 | 6.0 | 0.00 | 0.02 | 0.01 | 98 | 1019.7 |
| 20260503194007 | 50 | 246 | 1.0 | 7.0 | 0.00 | 0.02 | 0.01 | 98 | 1019.6 |
| 20260503193506 | 50 | 189 | 2.0 | 7.0 | 0.00 | 0.02 | 0.01 | 98 | 1019.6 |
| 20260503193005 | 50 | 164 | 0.0 | 8.0 | 0.00 | 0.02 | 0.01 | 98 | 1019.6 |
| 20260503192505 | 50 | 164 | 1.0 | 8.0 | 0.00 | 0.02 | 0.01 | 98 | 1019.7 |
| 20260503192005 | 50 | 190 | 3.0 | 7.0 | 0.00 | 0.02 | 0.01 | 98 | 1019.6 |
| 20260503191505 | 50 | 359 | 1.0 | 5.0 | 0.00 | 0.02 | 0.01 | 98 | 1019.7 |
| 20260503191005 | 50 | 359 | 0.0 | 5.0 | 0.00 | 0.02 | 0.01 | 98 | 1019.6 |
| 20260503190507 | 50 | 359 | 1.0 | 5.0 | 0.00 | 0.02 | 0.01 | 98 | 1019.6 |
| 20260503190016 | 50 | 359 | 1.0 | 6.0 | 0.00 | 0.02 | 0.01 | 98 | 1019.5 |
| 20260503185003 | 50 | 359 | 1.0 | 5.0 | 0.00 | 0.02 | 0.01 | 98 | 1019.5 |
| 20260503184503 | 50 | 359 | 0.0 | 5.0 | 0.00 | 0.02 | 0.01 | 98 | 1019.5 |
| 20260503184004 | 50 | 359 | 1.0 | 10.0 | 0.00 | 0.02 | 0.01 | 98 | 1019.4 |
| 20260503183507 | 50 | 183 | 3.0 | 10.0 | 0.00 | 0.02 | 0.01 | 98 | 1019.5 |
| 20260503183009 | 50 | 162 | 2.0 | 8.0 | 0.00 | 0.03 | 0.01 | 98 | 1019.4 |
| 20260503182503 | 50 | 188 | 3.0 | 8.0 | 0.00 | 0.03 | 0.01 | 98 | 1019.4 |
| 20260503182004 | 50 | 193 | 1.0 | 6.0 | 0.00 | 0.03 | 0.01 | 98 | 1019.4 |
| 20260503181507 | 50 | 166 | 1.0 | 4.0 | 0.00 | 0.03 | 0.01 | 98 | 1019.4 |
| 20260503181003 | 50 | 212 | 1.0 | 5.0 | 0.00 | 0.03 | 0.01 | 98 | 1019.5 |
| 20260503180503 | 50 | 28 | 1.0 | 7.0 | 0.00 | 0.03 | 0.01 | 98 | 1019.5 |
| 20260503180003 | 51 | 12 | 1.0 | 7.0 | 0.00 | 0.03 | 0.01 | 99 | 1019.5 |
| 20260503175004 | 51 | 210 | 2.0 | 7.0 | 0.00 | 0.03 | 0.01 | 99 | 1019.6 |